contact:dominique.lefevre@mio.osupytheas.fr, maurice.libes@osupytheas.fr, didier.mallarino@osupytheas.fr
Project:EMSO http://www.emso-fr.org/EMSO-France
Depth: 2436.0 m
Title:EMSO Ligure Ouest : Data MII capteur MICROCAT
DateTime_Computer,Latitude,Longitude,Temperature,Conductivity,Pressure,DateTime_Instrument
DateTime_Computer,Latitude,Longitude,degC,S m-1,dbar,DateTime_Instrument
2019-09-07T00:00:24Z,42.805,6.029,13.2967,4.59973,2469.97,2019-9-07T02:00:46Z
2019-09-07T00:03:27Z,42.805,6.029,13.2963,4.59968,2469.947,2019-9-07T02:03:50Z
2019-09-07T00:06:30Z,42.805,6.029,13.2964,4.59971,2469.97,2019-9-07T02:06:53Z
2019-09-07T00:09:33Z,42.805,6.029,13.2970,4.59977,2469.947,2019-9-07T02:09:56Z
2019-09-07T00:12:37Z,42.805,6.029,13.2970,4.59971,2469.947,2019-9-07T02:12:59Z
2019-09-07T00:15:40Z,42.805,6.029,13.2966,4.59977,2469.947,2019-9-07T02:16:02Z
2019-09-07T00:18:43Z,42.805,6.029,13.2965,4.59972,2469.97,2019-9-07T02:19:06Z
2019-09-07T00:21:46Z,42.805,6.029,13.2967,4.59976,2469.923,2019-9-07T02:22:09Z
2019-09-07T00:24:50Z,42.805,6.029,13.2966,4.59967,2469.937,2019-9-07T02:25:12Z
2019-09-07T00:27:53Z,42.805,6.029,13.2961,4.59970,2469.923,2019-9-07T02:28:16Z
2019-09-07T00:30:56Z,42.805,6.029,13.2967,4.59975,2469.923,2019-9-07T02:31:19Z
2019-09-07T00:34:00Z,42.805,6.029,13.2960,4.59971,2469.937,2019-9-07T02:34:22Z
2019-09-07T00:37:03Z,42.805,6.029,13.2967,4.59976,2469.923,2019-9-07T02:37:25Z
2019-09-07T00:40:06Z,42.805,6.029,13.2967,4.59973,2469.937,2019-9-07T02:40:28Z
2019-09-07T00:43:09Z,42.805,6.029,13.2967,4.59993,2469.947,2019-9-07T02:43:32Z
2019-09-07T00:46:12Z,42.805,6.029,13.2970,4.59989,2469.9,2019-9-07T02:46:35Z
2019-09-07T00:49:16Z,42.805,6.029,13.2963,4.59979,2469.96,2019-9-07T02:49:38Z
2019-09-07T00:52:19Z,42.805,6.029,13.2963,4.59971,2469.923,2019-9-07T02:52:41Z
2019-09-07T00:55:22Z,42.805,6.029,13.2968,4.59967,2469.96,2019-9-07T02:55:44Z
2019-09-07T00:58:25Z,42.805,6.029,13.2968,4.59981,2469.97,2019-9-07T02:58:48Z
2019-09-07T01:01:28Z,42.805,6.029,13.2968,4.59976,2469.947,2019-9-07T03:01:51Z
2019-09-07T01:04:32Z,42.805,6.029,13.2971,4.59981,2469.909,2019-9-07T03:04:54Z
2019-09-07T01:07:35Z,42.805,6.029,13.2966,4.59978,2469.947,2019-9-07T03:07:57Z
2019-09-07T01:10:38Z,42.805,6.029,13.2976,4.59972,2469.923,2019-9-07T03:11:00Z
2019-09-07T01:13:41Z,42.805,6.029,13.2959,4.59980,2469.96,2019-9-07T03:14:04Z
2019-09-07T01:16:45Z,42.805,6.029,13.2971,4.59977,2469.9,2019-9-07T03:17:07Z
2019-09-07T01:19:48Z,42.805,6.029,13.2959,4.59966,2469.937,2019-9-07T03:20:10Z
2019-09-07T01:22:51Z,42.805,6.029,13.2970,4.59973,2469.923,2019-9-07T03:23:13Z
2019-09-07T01:25:54Z,42.805,6.029,13.2968,4.59979,2469.937,2019-9-07T03:26:17Z
2019-09-07T01:28:58Z,42.805,6.029,13.2967,4.59978,2469.937,2019-9-07T03:29:20Z
2019-09-07T01:32:01Z,42.805,6.029,13.2967,4.59981,2469.923,2019-9-07T03:32:23Z
2019-09-07T01:35:04Z,42.805,6.029,13.2968,4.59973,2469.9,2019-9-07T03:35:26Z
2019-09-07T01:38:07Z,42.805,6.029,13.2967,4.59967,2469.9,2019-9-07T03:38:29Z
2019-09-07T01:41:10Z,42.805,6.029,13.2964,4.59968,2469.937,2019-9-07T03:41:33Z
2019-09-07T01:44:13Z,42.805,6.029,13.2965,4.59973,2469.914,2019-9-07T03:44:36Z
2019-09-07T01:47:17Z,42.805,6.029,13.2967,4.59968,2469.937,2019-9-07T03:47:39Z
2019-09-07T01:50:20Z,42.805,6.029,13.2965,4.59973,2469.923,2019-9-07T03:50:42Z
2019-09-07T01:53:23Z,42.805,6.029,13.2968,4.59974,2469.96,2019-9-07T03:53:45Z
2019-09-07T01:56:26Z,42.805,6.029,13.2965,4.59968,2469.923,2019-9-07T03:56:49Z
2019-09-07T01:59:29Z,42.805,6.029,13.2967,4.59967,2469.9,2019-9-07T03:59:52Z
2019-09-07T02:02:33Z,42.805,6.029,13.2966,4.59964,2469.947,2019-9-07T04:02:55Z
2019-09-07T02:05:36Z,42.805,6.029,13.2964,4.59966,2469.96,2019-9-07T04:05:58Z
2019-09-07T02:08:39Z,42.805,6.029,13.2965,4.59967,2469.923,2019-9-07T04:09:01Z
2019-09-07T02:11:42Z,42.805,6.029,13.2967,4.59971,2469.947,2019-9-07T04:12:05Z
2019-09-07T02:14:45Z,42.805,6.029,13.2965,4.59968,2469.97,2019-9-07T04:15:08Z
2019-09-07T02:17:49Z,42.805,6.029,13.2966,4.59973,2469.923,2019-9-07T04:18:11Z
2019-09-07T02:20:52Z,42.805,6.029,13.2973,4.59971,2469.914,2019-9-07T04:21:14Z
2019-09-07T02:23:55Z,42.805,6.029,13.2961,4.59973,2469.947,2019-9-07T04:24:17Z
2019-09-07T02:26:59Z,42.805,6.029,13.2968,4.59966,2469.937,2019-9-07T04:27:21Z
2019-09-07T02:30:02Z,42.805,6.029,13.2969,4.59980,2469.9,2019-9-07T04:30:24Z
2019-09-07T02:33:05Z,42.805,6.029,13.2963,4.59972,2469.937,2019-9-07T04:33:27Z
2019-09-07T02:36:08Z,42.805,6.029,13.2964,4.59973,2469.9,2019-9-07T04:36:31Z
2019-09-07T02:39:11Z,42.805,6.029,13.2967,4.59976,2469.923,2019-9-07T04:39:34Z
2019-09-07T02:42:15Z,42.805,6.029,13.2962,4.59969,2469.937,2019-9-07T04:42:37Z
2019-09-07T02:45:18Z,42.805,6.029,13.2961,4.59966,2469.923,2019-9-07T04:45:40Z
2019-09-07T02:48:21Z,42.805,6.029,13.2970,4.59978,2469.923,2019-9-07T04:48:44Z
2019-09-07T02:51:24Z,42.805,6.029,13.2963,4.59967,2469.923,2019-9-07T04:51:47Z
2019-09-07T02:54:28Z,42.805,6.029,13.2964,4.59971,2469.937,2019-9-07T04:54:50Z
2019-09-07T02:57:31Z,42.805,6.029,13.2964,4.59970,2469.876,2019-9-07T04:57:53Z
2019-09-07T03:00:34Z,42.805,6.029,13.2964,4.59973,2469.9,2019-9-07T05:00:56Z
2019-09-07T03:03:37Z,42.805,6.029,13.2964,4.59965,2469.923,2019-9-07T05:04:00Z
2019-09-07T03:06:40Z,42.805,6.029,13.2965,4.59969,2469.923,2019-9-07T05:07:03Z
2019-09-07T03:09:43Z,42.805,6.029,13.2963,4.59969,2469.9,2019-9-07T05:10:06Z
2019-09-07T03:12:47Z,42.805,6.029,13.2962,4.59964,2469.876,2019-9-07T05:13:09Z
2019-09-07T03:15:50Z,42.805,6.029,13.2967,4.59966,2469.876,2019-9-07T05:16:12Z
2019-09-07T03:18:53Z,42.805,6.029,13.2964,4.59967,2469.923,2019-9-07T05:19:15Z
2019-09-07T03:21:57Z,42.805,6.029,13.2964,4.59970,2469.937,2019-9-07T05:22:19Z
2019-09-07T03:25:00Z,42.805,6.029,13.2964,4.59965,2469.9,2019-9-07T05:25:22Z
2019-09-07T03:28:03Z,42.805,6.029,13.2964,4.59966,2469.9,2019-9-07T05:28:26Z
2019-09-07T03:31:06Z,42.805,6.029,13.2967,4.59971,2469.9,2019-9-07T05:31:29Z
2019-09-07T03:34:09Z,42.805,6.029,13.2967,4.59978,2469.914,2019-9-07T05:34:32Z
2019-09-07T03:37:13Z,42.805,6.029,13.2959,4.59959,2469.9,2019-9-07T05:37:35Z
2019-09-07T03:40:16Z,42.805,6.029,13.2965,4.59966,2469.914,2019-9-07T05:40:38Z
2019-09-07T03:43:19Z,42.805,6.029,13.2961,4.59971,2469.937,2019-9-07T05:43:41Z
2019-09-07T03:46:22Z,42.805,6.029,13.2965,4.59967,2469.9,2019-9-07T05:46:45Z
2019-09-07T03:49:26Z,42.805,6.029,13.2964,4.59967,2469.9,2019-9-07T05:49:48Z
2019-09-07T03:52:29Z,42.805,6.029,13.2958,4.59964,2469.96,2019-9-07T05:52:51Z
2019-09-07T03:55:32Z,42.805,6.029,13.2970,4.59978,2469.923,2019-9-07T05:55:54Z
2019-09-07T03:58:35Z,42.805,6.029,13.2967,4.59958,2469.947,2019-9-07T05:58:58Z
2019-09-07T04:01:38Z,42.805,6.029,13.2963,4.59969,2469.876,2019-9-07T06:02:01Z
2019-09-07T04:04:42Z,42.805,6.029,13.2960,4.59971,2469.853,2019-9-07T06:05:04Z
2019-09-07T04:07:45Z,42.805,6.029,13.2966,4.59968,2469.9,2019-9-07T06:08:07Z
2019-09-07T04:10:48Z,42.805,6.029,13.2960,4.59963,2469.9,2019-9-07T06:11:10Z
2019-09-07T04:13:51Z,42.805,6.029,13.2964,4.59975,2469.914,2019-9-07T06:14:14Z
2019-09-07T04:16:54Z,42.805,6.029,13.2964,4.59968,2469.9,2019-9-07T06:17:17Z
2019-09-07T04:19:58Z,42.805,6.029,13.2964,4.59969,2469.867,2019-9-07T06:20:20Z
2019-09-07T04:23:01Z,42.805,6.029,13.2961,4.59974,2469.876,2019-9-07T06:23:23Z
2019-09-07T04:26:04Z,42.805,6.029,13.2971,4.59971,2469.937,2019-9-07T06:26:26Z
2019-09-07T04:29:07Z,42.805,6.029,13.2962,4.59969,2469.914,2019-9-07T06:29:30Z
2019-09-07T04:32:10Z,42.805,6.029,13.2967,4.59977,2469.923,2019-9-07T06:32:33Z
2019-09-07T04:35:14Z,42.805,6.029,13.2964,4.59965,2469.9,2019-9-07T06:35:36Z
2019-09-07T04:38:17Z,42.805,6.029,13.2960,4.59966,2469.914,2019-9-07T06:38:39Z
2019-09-07T04:41:20Z,42.805,6.029,13.2960,4.59965,2469.876,2019-9-07T06:41:42Z
2019-09-07T04:44:23Z,42.805,6.029,13.2966,4.59964,2469.9,2019-9-07T06:44:46Z
2019-09-07T04:47:26Z,42.805,6.029,13.2961,4.59964,2469.853,2019-9-07T06:47:49Z
2019-09-07T04:50:30Z,42.805,6.029,13.2968,4.59971,2469.89,2019-9-07T06:50:52Z
2019-09-07T04:53:33Z,42.805,6.029,13.2961,4.59965,2469.876,2019-9-07T06:53:55Z
2019-09-07T04:56:36Z,42.805,6.029,13.2961,4.59963,2469.9,2019-9-07T06:56:58Z
2019-09-07T04:59:39Z,42.805,6.029,13.2966,4.59973,2469.853,2019-9-07T07:00:02Z
2019-09-07T05:02:42Z,42.805,6.029,13.2964,4.59965,2469.876,2019-9-07T07:03:05Z
2019-09-07T05:05:46Z,42.805,6.029,13.2965,4.59966,2469.89,2019-9-07T07:06:08Z
2019-09-07T05:08:49Z,42.805,6.029,13.2968,4.59969,2469.89,2019-9-07T07:09:11Z
2019-09-07T05:11:52Z,42.805,6.029,13.2958,4.59964,2469.89,2019-9-07T07:12:14Z
2019-09-07T05:14:55Z,42.805,6.029,13.2961,4.59970,2469.867,2019-9-07T07:15:18Z
2019-09-07T05:17:58Z,42.805,6.029,13.2964,4.59967,2469.876,2019-9-07T07:18:21Z
2019-09-07T05:21:02Z,42.805,6.029,13.2961,4.59962,2469.876,2019-9-07T07:21:24Z
2019-09-07T05:24:05Z,42.805,6.029,13.2967,4.59967,2469.9,2019-9-07T07:24:27Z
2019-09-07T05:27:08Z,42.805,6.029,13.2961,4.59964,2469.89,2019-9-07T07:27:30Z
2019-09-07T05:30:11Z,42.805,6.029,13.2967,4.59973,2469.89,2019-9-07T07:30:34Z
2019-09-07T05:33:14Z,42.805,6.029,13.2962,4.59971,2469.89,2019-9-07T07:33:37Z
2019-09-07T05:36:18Z,42.805,6.029,13.2966,4.59967,2469.914,2019-9-07T07:36:40Z
2019-09-07T05:39:21Z,42.805,6.029,13.2959,4.59965,2469.89,2019-9-07T07:39:43Z
2019-09-07T05:42:24Z,42.805,6.029,13.2957,4.59964,2469.9,2019-9-07T07:42:47Z
2019-09-07T05:45:27Z,42.805,6.029,13.2967,4.59973,2469.853,2019-9-07T07:45:50Z
2019-09-07T05:48:30Z,42.805,6.029,13.2962,4.59967,2469.914,2019-9-07T07:48:53Z
2019-09-07T05:51:34Z,42.805,6.029,13.2968,4.59966,2469.876,2019-9-07T07:51:56Z
2019-09-07T05:54:37Z,42.805,6.029,13.2958,4.59963,2469.876,2019-9-07T07:54:59Z
2019-09-07T05:57:40Z,42.805,6.029,13.2966,4.59968,2469.863,2019-9-07T07:58:03Z
2019-09-07T06:00:43Z,42.805,6.029,13.2960,4.59964,2469.853,2019-9-07T08:01:06Z
2019-09-07T06:03:46Z,42.805,6.029,13.2968,4.59966,2469.853,2019-9-07T08:04:09Z
2019-09-07T06:06:50Z,42.805,6.029,13.2964,4.59972,2469.9,2019-9-07T08:07:12Z
2019-09-07T06:09:53Z,42.805,6.029,13.2960,4.59968,2469.867,2019-9-07T08:10:15Z
2019-09-07T06:12:56Z,42.805,6.029,13.2961,4.59964,2469.876,2019-9-07T08:13:18Z
2019-09-07T06:15:59Z,42.805,6.029,13.2964,4.59966,2469.9,2019-9-07T08:16:22Z
2019-09-07T06:19:02Z,42.805,6.029,13.2964,4.59968,2469.914,2019-9-07T08:19:25Z
2019-09-07T06:22:06Z,42.805,6.029,13.2962,4.59969,2469.876,2019-9-07T08:22:28Z
2019-09-07T06:25:09Z,42.805,6.029,13.2961,4.59969,2469.89,2019-9-07T08:25:31Z
2019-09-07T06:28:12Z,42.805,6.029,13.2968,4.59971,2469.853,2019-9-07T08:28:34Z
2019-09-07T06:31:15Z,42.805,6.029,13.2964,4.59965,2469.876,2019-9-07T08:31:38Z
2019-09-07T06:34:18Z,42.805,6.029,13.2967,4.59968,2469.83,2019-9-07T08:34:41Z
2019-09-07T06:37:21Z,42.805,6.029,13.2963,4.59969,2469.9,2019-9-07T08:37:44Z
2019-09-07T06:40:25Z,42.805,6.029,13.2959,4.59962,2469.876,2019-9-07T08:40:47Z
2019-09-07T06:43:28Z,42.805,6.029,13.2961,4.59966,2469.876,2019-9-07T08:43:50Z
2019-09-07T06:46:31Z,42.805,6.029,13.2967,4.59974,2469.9,2019-9-07T08:46:54Z
2019-09-07T06:49:34Z,42.805,6.029,13.2967,4.59966,2469.867,2019-9-07T08:49:57Z
2019-09-07T06:52:37Z,42.805,6.029,13.2964,4.59970,2469.876,2019-9-07T08:53:00Z
2019-09-07T06:55:41Z,42.805,6.029,13.2961,4.59964,2469.867,2019-9-07T08:56:03Z
2019-09-07T06:58:44Z,42.805,6.029,13.2966,4.59966,2469.83,2019-9-07T08:59:06Z
2019-09-07T07:01:47Z,42.805,6.029,13.2964,4.59966,2469.867,2019-9-07T09:02:09Z
2019-09-07T07:04:50Z,42.805,6.029,13.2962,4.59964,2469.867,2019-9-07T09:05:13Z
2019-09-07T07:07:53Z,42.805,6.029,13.2967,4.59964,2469.844,2019-9-07T09:08:16Z
2019-09-07T07:10:57Z,42.805,6.029,13.2964,4.59963,2469.876,2019-9-07T09:11:19Z
2019-09-07T07:14:00Z,42.805,6.029,13.2965,4.59966,2469.876,2019-9-07T09:14:22Z
2019-09-07T07:17:03Z,42.805,6.029,13.2966,4.59966,2469.853,2019-9-07T09:17:26Z
2019-09-07T07:20:06Z,42.805,6.029,13.2966,4.59969,2469.876,2019-9-07T09:20:29Z
2019-09-07T07:23:09Z,42.805,6.029,13.2963,4.59968,2469.867,2019-9-07T09:23:32Z
2019-09-07T07:26:13Z,42.805,6.029,13.2965,4.59966,2469.89,2019-9-07T09:26:35Z
2019-09-07T07:29:16Z,42.805,6.029,13.2963,4.59962,2469.853,2019-9-07T09:29:38Z
2019-09-07T07:32:19Z,42.805,6.029,13.2962,4.59968,2469.844,2019-9-07T09:32:42Z
2019-09-07T07:35:22Z,42.805,6.029,13.2967,4.59966,2469.83,2019-9-07T09:35:45Z
2019-09-07T07:38:25Z,42.805,6.029,13.2964,4.59963,2469.853,2019-9-07T09:38:48Z
2019-09-07T07:41:29Z,42.805,6.029,13.2960,4.59962,2469.83,2019-9-07T09:41:51Z
2019-09-07T07:44:32Z,42.805,6.029,13.2967,4.59966,2469.867,2019-9-07T09:44:54Z
2019-09-07T07:47:35Z,42.805,6.029,13.2958,4.59963,2469.853,2019-9-07T09:47:58Z
2019-09-07T07:50:38Z,42.805,6.029,13.2964,4.59963,2469.806,2019-9-07T09:51:01Z
2019-09-07T07:53:41Z,42.805,6.029,13.2962,4.59967,2469.9,2019-9-07T09:54:04Z
2019-09-07T07:56:45Z,42.805,6.029,13.2962,4.59968,2469.844,2019-9-07T09:57:07Z
2019-09-07T07:59:48Z,42.805,6.029,13.2962,4.59961,2469.844,2019-9-07T10:00:10Z
2019-09-07T08:02:51Z,42.805,6.029,13.2964,4.59968,2469.853,2019-9-07T10:03:13Z
2019-09-07T08:05:54Z,42.805,6.029,13.2962,4.59963,2469.867,2019-9-07T10:06:17Z
2019-09-07T08:08:57Z,42.805,6.029,13.2961,4.59963,2469.867,2019-9-07T10:09:20Z
2019-09-07T08:12:01Z,42.805,6.029,13.2961,4.59964,2469.83,2019-9-07T10:12:23Z
2019-09-07T08:15:04Z,42.805,6.029,13.2964,4.59966,2469.844,2019-9-07T10:15:26Z
2019-09-07T08:18:07Z,42.805,6.029,13.2959,4.59965,2469.853,2019-9-07T10:18:30Z
2019-09-07T08:21:10Z,42.805,6.029,13.2965,4.59966,2469.89,2019-9-07T10:21:33Z
2019-09-07T08:24:13Z,42.805,6.029,13.2963,4.59967,2469.89,2019-9-07T10:24:36Z
2019-09-07T08:27:17Z,42.805,6.029,13.2961,4.59965,2469.83,2019-9-07T10:27:39Z
2019-09-07T08:30:20Z,42.805,6.029,13.2961,4.59968,2469.83,2019-9-07T10:30:42Z
2019-09-07T08:33:23Z,42.805,6.029,13.2961,4.59965,2469.844,2019-9-07T10:33:46Z
2019-09-07T08:36:26Z,42.805,6.029,13.2964,4.59964,2469.867,2019-9-07T10:36:49Z
2019-09-07T08:39:30Z,42.805,6.029,13.2964,4.59966,2469.806,2019-9-07T10:39:52Z
2019-09-07T08:42:33Z,42.805,6.029,13.2964,4.59965,2469.844,2019-9-07T10:42:55Z
2019-09-07T08:45:36Z,42.805,6.029,13.2967,4.59966,2469.853,2019-9-07T10:45:58Z
2019-09-07T08:48:39Z,42.805,6.029,13.2964,4.59967,2469.83,2019-9-07T10:49:02Z
2019-09-07T08:51:42Z,42.805,6.029,13.2964,4.59966,2469.83,2019-9-07T10:52:05Z
2019-09-07T08:54:46Z,42.805,6.029,13.2962,4.59965,2469.853,2019-9-07T10:55:08Z
2019-09-07T08:57:49Z,42.805,6.029,13.2962,4.59961,2469.853,2019-9-07T10:58:11Z
2019-09-07T09:00:52Z,42.805,6.029,13.2961,4.59967,2469.876,2019-9-07T11:01:15Z
2019-09-07T09:03:55Z,42.805,6.029,13.2966,4.59963,2469.89,2019-9-07T11:04:18Z
2019-09-07T09:06:58Z,42.805,6.029,13.2961,4.59966,2469.876,2019-9-07T11:07:21Z
2019-09-07T09:10:02Z,42.805,6.029,13.2964,4.59966,2469.83,2019-9-07T11:10:24Z
2019-09-07T09:13:05Z,42.805,6.029,13.2968,4.59967,2469.876,2019-9-07T11:13:27Z
2019-09-07T09:16:08Z,42.805,6.029,13.2964,4.59967,2469.867,2019-9-07T11:16:31Z
2019-09-07T09:19:11Z,42.805,6.029,13.2958,4.59967,2469.853,2019-9-07T11:19:34Z
2019-09-07T09:22:14Z,42.805,6.029,13.2963,4.59967,2469.867,2019-9-07T11:22:37Z
2019-09-07T09:25:18Z,42.805,6.029,13.2965,4.59967,2469.876,2019-9-07T11:25:40Z
2019-09-07T09:28:21Z,42.805,6.029,13.2961,4.59961,2469.876,2019-9-07T11:28:43Z
2019-09-07T09:31:24Z,42.805,6.029,13.2961,4.59965,2469.867,2019-9-07T11:31:47Z
2019-09-07T09:34:27Z,42.805,6.029,13.2959,4.59963,2469.876,2019-9-07T11:34:50Z
2019-09-07T09:37:30Z,42.805,6.029,13.2962,4.59964,2469.876,2019-9-07T11:37:53Z
2019-09-07T09:40:34Z,42.805,6.029,13.2961,4.59964,2469.867,2019-9-07T11:40:56Z
2019-09-07T09:43:37Z,42.805,6.029,13.2963,4.59963,2469.89,2019-9-07T11:43:59Z
2019-09-07T09:46:40Z,42.805,6.029,13.2960,4.59961,2469.853,2019-9-07T11:47:02Z
2019-09-07T09:49:43Z,42.805,6.029,13.2967,4.59962,2469.876,2019-9-07T11:50:06Z
2019-09-07T09:52:46Z,42.805,6.029,13.2965,4.59969,2469.89,2019-9-07T11:53:09Z
2019-09-07T09:55:50Z,42.805,6.029,13.2961,4.59964,2469.89,2019-9-07T11:56:12Z
2019-09-07T09:58:53Z,42.805,6.029,13.2964,4.59965,2469.853,2019-9-07T11:59:15Z
2019-09-07T10:01:56Z,42.805,6.029,13.2962,4.59964,2469.89,2019-9-07T12:02:19Z
2019-09-07T10:04:59Z,42.805,6.029,13.2966,4.59964,2469.89,2019-9-07T12:05:22Z
2019-09-07T10:08:03Z,42.805,6.029,13.2961,4.59966,2469.9,2019-9-07T12:08:25Z
2019-09-07T10:11:06Z,42.805,6.029,13.2964,4.59964,2469.867,2019-9-07T12:11:28Z
2019-09-07T10:14:09Z,42.805,6.029,13.2964,4.59964,2469.89,2019-9-07T12:14:31Z
2019-09-07T10:17:12Z,42.805,6.029,13.2964,4.59971,2469.876,2019-9-07T12:17:35Z
2019-09-07T10:20:15Z,42.805,6.029,13.2962,4.59962,2469.9,2019-9-07T12:20:38Z
2019-09-07T10:23:18Z,42.805,6.029,13.2964,4.59966,2469.876,2019-9-07T12:23:41Z
2019-09-07T10:26:22Z,42.805,6.029,13.2958,4.59966,2469.9,2019-9-07T12:26:44Z
2019-09-07T10:29:25Z,42.805,6.029,13.2963,4.59963,2469.914,2019-9-07T12:29:47Z
2019-09-07T10:32:28Z,42.805,6.029,13.2964,4.59961,2469.9,2019-9-07T12:32:51Z
2019-09-07T10:35:31Z,42.805,6.029,13.2957,4.59964,2469.9,2019-9-07T12:35:54Z
2019-09-07T10:38:34Z,42.805,6.029,13.2963,4.59964,2469.876,2019-9-07T12:38:57Z
2019-09-07T10:41:38Z,42.805,6.029,13.2963,4.59964,2469.923,2019-9-07T12:42:00Z
2019-09-07T10:44:41Z,42.805,6.029,13.2961,4.59964,2469.923,2019-9-07T12:45:04Z
2019-09-07T10:47:44Z,42.805,6.029,13.2964,4.59966,2469.876,2019-9-07T12:48:07Z
2019-09-07T10:50:47Z,42.805,6.029,13.2961,4.59971,2469.923,2019-9-07T12:51:10Z
2019-09-07T10:53:51Z,42.805,6.029,13.2966,4.59963,2469.923,2019-9-07T12:54:13Z
2019-09-07T10:56:54Z,42.805,6.029,13.2960,4.59966,2469.89,2019-9-07T12:57:16Z
2019-09-07T10:59:57Z,42.805,6.029,13.2958,4.59965,2469.923,2019-9-07T13:00:20Z
2019-09-07T11:03:00Z,42.805,6.029,13.2961,4.59963,2469.947,2019-9-07T13:03:23Z
2019-09-07T11:06:04Z,42.805,6.029,13.2963,4.59963,2469.9,2019-9-07T13:06:26Z
2019-09-07T11:09:07Z,42.805,6.029,13.2960,4.59965,2469.914,2019-9-07T13:09:29Z
2019-09-07T11:12:10Z,42.805,6.029,13.2962,4.59973,2469.96,2019-9-07T13:12:32Z
2019-09-07T11:15:13Z,42.805,6.029,13.2965,4.59967,2469.876,2019-9-07T13:15:36Z
2019-09-07T11:18:16Z,42.805,6.029,13.2967,4.59971,2469.923,2019-9-07T13:18:39Z
2019-09-07T11:21:20Z,42.805,6.029,13.2961,4.59962,2469.9,2019-9-07T13:21:42Z
2019-09-07T11:24:23Z,42.805,6.029,13.2960,4.59966,2469.9,2019-9-07T13:24:45Z
2019-09-07T11:27:26Z,42.805,6.029,13.2965,4.59970,2469.937,2019-9-07T13:27:48Z
2019-09-07T11:30:29Z,42.805,6.029,13.2961,4.59970,2469.886,2019-9-07T13:30:52Z
2019-09-07T11:33:32Z,42.805,6.029,13.2967,4.59966,2469.9,2019-9-07T13:33:55Z
2019-09-07T11:36:36Z,42.805,6.029,13.2965,4.59966,2469.96,2019-9-07T13:36:58Z
2019-09-07T11:39:39Z,42.805,6.029,13.2967,4.59974,2469.947,2019-9-07T13:40:01Z
2019-09-07T11:42:42Z,42.805,6.029,13.2961,4.59964,2469.947,2019-9-07T13:43:04Z
2019-09-07T11:45:45Z,42.805,6.029,13.2963,4.59964,2469.947,2019-9-07T13:46:07Z
2019-09-07T11:48:48Z,42.805,6.029,13.2966,4.59973,2469.9,2019-9-07T13:49:11Z
2019-09-07T11:51:51Z,42.805,6.029,13.2963,4.59965,2469.947,2019-9-07T13:52:14Z
2019-09-07T11:54:55Z,42.805,6.029,13.2960,4.59966,2469.96,2019-9-07T13:55:17Z
2019-09-07T11:57:58Z,42.805,6.029,13.2964,4.59964,2469.933,2019-9-07T13:58:20Z
2019-09-07T12:01:01Z,42.805,6.029,13.2958,4.59966,2469.96,2019-9-07T14:01:24Z
2019-09-07T12:04:04Z,42.805,6.029,13.2963,4.59975,2469.984,2019-9-07T14:04:27Z
2019-09-07T12:07:07Z,42.805,6.029,13.2961,4.59974,2469.947,2019-9-07T14:07:30Z
2019-09-07T12:10:11Z,42.805,6.029,13.2967,4.59970,2469.923,2019-9-07T14:10:33Z
2019-09-07T12:13:14Z,42.805,6.029,13.2964,4.59965,2469.96,2019-9-07T14:13:36Z
2019-09-07T12:16:17Z,42.805,6.029,13.2961,4.59964,2469.937,2019-9-07T14:16:40Z
2019-09-07T12:19:20Z,42.805,6.029,13.2961,4.59964,2469.96,2019-9-07T14:19:43Z
2019-09-07T12:22:24Z,42.805,6.029,13.2964,4.59968,2469.947,2019-9-07T14:22:46Z
2019-09-07T12:25:27Z,42.805,6.029,13.2964,4.59971,2469.947,2019-9-07T14:25:49Z
2019-09-07T12:28:30Z,42.805,6.029,13.2967,4.59970,2469.923,2019-9-07T14:28:52Z
2019-09-07T12:31:33Z,42.805,6.029,13.2964,4.59973,2469.984,2019-9-07T14:31:56Z
2019-09-07T12:34:36Z,42.805,6.029,13.2960,4.59967,2469.923,2019-9-07T14:34:59Z
2019-09-07T12:37:40Z,42.805,6.029,13.2958,4.59968,2469.96,2019-9-07T14:38:02Z
2019-09-07T12:40:43Z,42.805,6.029,13.2964,4.59972,2469.97,2019-9-07T14:41:05Z
2019-09-07T12:43:46Z,42.805,6.029,13.2960,4.59970,2469.984,2019-9-07T14:44:08Z
2019-09-07T12:46:49Z,42.805,6.029,13.2963,4.59969,2469.947,2019-9-07T14:47:12Z
2019-09-07T12:49:52Z,42.805,6.029,13.2963,4.59973,2469.947,2019-9-07T14:50:15Z
2019-09-07T12:52:56Z,42.805,6.029,13.2961,4.59971,2469.947,2019-9-07T14:53:18Z
2019-09-07T12:55:59Z,42.805,6.029,13.2958,4.59964,2469.96,2019-9-07T14:56:21Z
2019-09-07T12:59:02Z,42.805,6.029,13.2964,4.59969,2469.984,2019-9-07T14:59:24Z
2019-09-07T13:02:05Z,42.805,6.029,13.2963,4.59957,2469.984,2019-9-07T15:02:28Z
2019-09-07T13:05:08Z,42.805,6.029,13.2959,4.59965,2469.97,2019-9-07T15:05:31Z
2019-09-07T13:08:12Z,42.805,6.029,13.2960,4.59972,2469.956,2019-9-07T15:08:34Z
2019-09-07T13:11:15Z,42.805,6.029,13.2966,4.59968,2469.97,2019-9-07T15:11:37Z
2019-09-07T13:14:18Z,42.805,6.029,13.2963,4.59961,2469.947,2019-9-07T15:14:40Z
2019-09-07T13:17:22Z,42.805,6.029,13.2959,4.59968,2469.947,2019-9-07T15:17:44Z
2019-09-07T13:20:25Z,42.805,6.029,13.2962,4.59972,2469.984,2019-9-07T15:20:47Z
2019-09-07T13:23:28Z,42.805,6.029,13.2964,4.59969,2469.984,2019-9-07T15:23:51Z
2019-09-07T13:26:31Z,42.805,6.029,13.2964,4.59967,2469.97,2019-9-07T15:26:54Z
2019-09-07T13:29:35Z,42.805,6.029,13.2959,4.59966,2469.97,2019-9-07T15:29:57Z
2019-09-07T13:32:38Z,42.805,6.029,13.2962,4.59964,2469.984,2019-9-07T15:33:00Z
2019-09-07T13:35:41Z,42.805,6.029,13.2957,4.59968,2470.017,2019-9-07T15:36:04Z
2019-09-07T13:38:44Z,42.805,6.029,13.2962,4.59970,2469.984,2019-9-07T15:39:07Z
2019-09-07T13:41:47Z,42.805,6.029,13.2968,4.59973,2469.984,2019-9-07T15:42:10Z
2019-09-07T13:44:51Z,42.805,6.029,13.2962,4.59968,2469.984,2019-9-07T15:45:13Z
2019-09-07T13:47:54Z,42.805,6.029,13.2960,4.59966,2469.993,2019-9-07T15:48:16Z
2019-09-07T13:50:57Z,42.805,6.029,13.2962,4.59971,2469.96,2019-9-07T15:51:20Z
2019-09-07T13:54:00Z,42.805,6.029,13.2964,4.59976,2469.984,2019-9-07T15:54:23Z
2019-09-07T13:57:03Z,42.805,6.029,13.2956,4.59964,2469.947,2019-9-07T15:57:26Z
2019-09-07T14:00:07Z,42.805,6.029,13.2963,4.59967,2469.97,2019-9-07T16:00:29Z
2019-09-07T14:03:10Z,42.805,6.029,13.2960,4.59964,2470.007,2019-9-07T16:03:32Z
2019-09-07T14:06:13Z,42.805,6.029,13.2963,4.59967,2469.984,2019-9-07T16:06:36Z
2019-09-07T14:09:16Z,42.805,6.029,13.2964,4.59971,2469.97,2019-9-07T16:09:39Z
2019-09-07T14:12:20Z,42.805,6.029,13.2961,4.59970,2469.984,2019-9-07T16:12:42Z
2019-09-07T14:15:23Z,42.805,6.029,13.2961,4.59971,2469.97,2019-9-07T16:15:45Z
2019-09-07T14:18:26Z,42.805,6.029,13.2967,4.59978,2469.96,2019-9-07T16:18:48Z
2019-09-07T14:21:29Z,42.805,6.029,13.2966,4.59970,2469.947,2019-9-07T16:21:52Z
2019-09-07T14:24:32Z,42.805,6.029,13.2969,4.59959,2469.96,2019-9-07T16:24:55Z
2019-09-07T14:27:36Z,42.805,6.029,13.2958,4.59962,2469.96,2019-9-07T16:27:58Z
2019-09-07T14:30:39Z,42.805,6.029,13.2960,4.59966,2469.96,2019-9-07T16:31:01Z
2019-09-07T14:33:42Z,42.805,6.029,13.2964,4.59964,2469.933,2019-9-07T16:34:04Z
2019-09-07T14:36:45Z,42.805,6.029,13.2963,4.59968,2469.97,2019-9-07T16:37:08Z
2019-09-07T14:39:48Z,42.805,6.029,13.2962,4.59968,2469.993,2019-9-07T16:40:11Z
2019-09-07T14:42:52Z,42.805,6.029,13.2962,4.59975,2469.96,2019-9-07T16:43:14Z
2019-09-07T14:45:55Z,42.805,6.029,13.2960,4.59967,2469.923,2019-9-07T16:46:17Z
2019-09-07T14:48:58Z,42.805,6.029,13.2964,4.59968,2469.947,2019-9-07T16:49:20Z
2019-09-07T14:52:01Z,42.805,6.029,13.2959,4.59963,2469.923,2019-9-07T16:52:24Z
2019-09-07T14:55:04Z,42.805,6.029,13.2962,4.59968,2469.96,2019-9-07T16:55:27Z
2019-09-07T14:58:08Z,42.805,6.029,13.2965,4.59963,2469.947,2019-9-07T16:58:30Z
2019-09-07T15:01:11Z,42.805,6.029,13.2962,4.59968,2469.993,2019-9-07T17:01:33Z
2019-09-07T15:04:14Z,42.805,6.029,13.2964,4.59968,2469.947,2019-9-07T17:04:36Z
2019-09-07T15:07:17Z,42.805,6.029,13.2958,4.59971,2469.97,2019-9-07T17:07:40Z
2019-09-07T15:10:20Z,42.805,6.029,13.2968,4.59971,2469.993,2019-9-07T17:10:43Z
2019-09-07T15:13:24Z,42.805,6.029,13.2965,4.59968,2469.96,2019-9-07T17:13:46Z